Torna al catalogo

STARLINK-30999

AttivoComunicazioniVLEO
NORAD 58551·PAYLOAD·🇺🇸 United States

Lanciato Dec 8, 2023 da Vandenberg Space Force Base

Loading…

Prossimi Passaggi (prossime 24 ore)

TLE

AggiornatoSource: CelesTrak SupGP

Epoca: Sep 15, 2026, 02:38 UTC

1 58551C 23192W   26258.11020833 -.00026692  00000+0 -78850-3 0  2587
2 58551  53.1563 250.5499 0001255  97.2319  90.6463 15.34408989    17

Traccia STARLINK-30999 in tempo reale con AllMySat

Download on the App Store